Weather Roundup
Issued by NWS Chicago, IL

Home | Current Version | Previous Version | Text Only | Print | Product List | Glossary On
Versions: 1 2 3 4 5 6 7 8 9 10 11 12 13 14 15 16 17 18 19 20 21 22 23 24 25 26 27 28 29 30 31 32 33 34 35 36 37 38 39 40 41 42 43 44 45 46 47 48 49 50
755
NZUS59 KLOT 242108
HRRLOT

CHICAGO AREA WEATHER ROUNDUP
NATIONAL WEATHER SERVICE CHICAGO/ROMEOVILLE IL
400 PM CDT SAT SEP 24 2016

NOTE: "FAIR" INDICATES FEW OR NO CLOUDS BELOW 12,000 FEET WITH NO
SIGNIFICANT WEATHER AND/OR OBSTRUCTIONS TO VISIBILITY.

* THESE STATIONS ARE NOT UNDER NWS QUALITY CONTROL. THEY ALSO MAY NOT
  REPORT WEATHER SUCH AS PRECIPITATION OR FOG.

ILZ005-006-012>014-019>023-242200-
NORTHEAST ILLINOIS

CITY           SKY/WX    TMP DP  RH WIND       PRES   REMARKS
OHARE          MOSUNNY   73  63  70 E10       30.14F
MIDWAY         MOSUNNY   74  63  68 NE10      30.14F
AURORA         CLOUDY    76  65  68 NE9       30.13F
LANSING*       SUNNY     74  66  75 NE9       30.14S
JOLIET*        MOSUNNY   80  69  67 NE7       30.12F HX  83
WAUKEGAN       CLOUDY    69  62  78 E10       30.16F
DUPAGE AIRPORT SUNNY     75  64  68 E12       30.13F
WHEELING       SUNNY     71  62  73 E10       30.16F
KANKAKEE*      CLOUDY    82  67  61 E8        30.11F HX  84
MORRIS*        MOSUNNY   82  66  59 SE6       30.10F HX  84
LEWIS AIRPORT* MOSUNNY   78  69  73 E12       30.12F HX  80
NORTHERLY ISL    N/A     71  62  73 NE9         N/A
$$

WIZ051-052-058>065-066-070>072-242200-
SOUTHEAST WISCONSIN

CITY           SKY/WX    TMP DP  RH WIND       PRES   REMARKS
MILWAUKEE      PTSUNNY   68  60  75 E10       30.18F
KENOSHA*       CLOUDY    68  61  78 E10       30.18S
RACINE*        CLOUDY    68  60  75 E13       30.19F
BURLINGTON     CLOUDY    66  59  78 E12       30.17S
WAUKESHA       CLOUDY    64  59  82 E10       30.19F
WEST BEND      CLOUDY    64  57  77 SE7       30.19F
$$

INZ001>003-010>013-019-020-242200-
NORTHWEST INDIANA

CITY           SKY/WX    TMP DP  RH WIND       PRES   REMARKS
GARY*          MOSUNNY   75  66  73 NE14      30.15F
MICHIGAN CITY* NOT AVBL
RENSSELAER*    NOT AVBL
VALPARAISO     MOSUNNY   79  64  60 NE7       30.14F HX  81
$$

LMZ740>746-242200-
SOUTHERN LAKE MICHIGAN

STATION/POSITION TIME  SKY/WX   TEMP WIND        PRES    VSBY
                                AIR  DIR/SP/G
                 (UTC)          (F)  (DEG/KT/KT) (MB)    (MI)
HARRISON CRIB    2000            69   40/ 12/ 14   N/A
BURNHAM HARBOR   2100            71   30/  6/ 11   N/A
CALUMET HARBOR   2000            70   20/ 11/ 13 1020.8F
BURNS HARBOR     2008            70   50/ 14/ 16 1021.0F
MICHIGAN CITY    2000            69   10/ 13/ 14   N/A
$$

ABBREVIATIONS USED IN REMARKS
   TC - TEMPERATURE IN CELSIUS
  WCI - WIND CHILL INDEX
   HX - HEAT INDEX
  VSB - VISIBILITY
$$




USA.gov is the U.S. government's official web portal to all federal, state and local government web resources and services.